CW3442 Weather Reports


Display with metric or nautical units.
time (UTC)temp
F
wind
direction
speed
MPH
gust
MPH
rain 1hr
in
rain 24hr
in
rain mn
in
humidity
%
barometer
mb
20260509160436 61 47 3.0 0.0 0.00 0.00 0.00 29 787.4
20260509150427 61 101 1.0 0.0 0.00 0.00 0.00 33 787.5
20260509140430 57 111 0.0 0.0 0.00 0.00 0.00 41 787.6
20260509130434 52 165 0.0 0.0 0.00 0.00 0.00 48 787.7
20260509120430 45 142 0.0 0.0 0.00 0.00 0.00 59 787.8
20260509113653 44 168 0.0 0.0 0.00 0.00 0.00 64 787.7
20260509113553 44 168 0.0 0.0 0.00 0.00 0.00 64 787.7
20260509050442 46 189 0.0 0.0 0.00 0.00 0.00 59 787.5
20260508210433 52 86 0.0 0.0 0.00 0.00 0.00 47 787.0
20260508204630 51 265 0.0 0.0 0.00 0.00 0.00 48 787.0
20260508204519 51 265 0.0 0.0 0.00 0.00 0.00 47 787.0
20260508203419 51 274 0.0 0.0 0.00 0.00 0.00 46 787.0
20260508193418 54 131 0.0 0.0 0.00 0.00 0.00 43 787.1
20260508192548 53 203 0.0 0.0 0.00 0.00 0.00 46 787.1
20260508192452 53 203 0.0 0.0 0.00 0.00 0.00 46 787.1
20260508190439 51 192 0.0 0.0 0.00 0.00 0.00 52 787.1
20260508182224 52 192 0.0 0.0 0.00 0.00 0.00 45 787.1
20260508181807 52 96 0.0 0.0 0.00 0.00 0.00 44 787.1
20260508170248 50 262 0.0 0.0 0.00 0.00 0.00 45 787.1
20260508165912 50 261 0.0 0.0 0.00 0.00 0.00 48 787.1
20260508165708 50 254 0.0 0.0 0.00 0.00 0.00 48 787.1
20260508165557 50 261 0.0 0.0 0.00 0.00 0.00 48 787.1
20260508165446 50 263 0.0 0.0 0.00 0.00 0.00 47 787.1